Temperature
22 23 23 23 27 29 27 28 28 28 28 27 27 27 28 27 26 25 20 19 19 19 19 19 19 19 19 19 18 18 18 18 18 19 19 18 18 18 18 18 18 18 19 18 19 18 18 18 18
21 23 23 25 29 28 27 28 28 28 28 27 27 27 27 26 23 22 19 19 19 19 18 18 19 19 19 19 18 18 18 18 18 18 18 18 18 18 18 18 18 18 19 18 18 18 18 18 18
22 23 24 28 28 28 27 28 28 28 27 27 27 26 26 25 23 21 20 19 19 18 18 18 19 19 19 19 19 18 18 18 18 18 18 18 18 18 18 18 18 18 18 18 18 18 17 18 18
22 24 26 28 28 28 28 28 28 28 27 26 27 27 25 23 22 21 20 19 19 18 18 18 19 19 19 19 19 18 18 18 18 18 19 18 18 18 17 17 17 18 18 18 18 17 17 17 17
23 26 28 28 28 28 28 28 28 28 28 27 27 27 25 22 21 20 20 19 19 19 18 18 19 19 19 18 18 18 18 18 18 18 18 18 18 18 17 17 17 18 18 18 18 17 17 17 17
24 27 28 27 27 28 29 28 28 28 28 27 27 27 24 22 21 20 20 19 19 19 18 18 19 19 18 18 18 18 18 18 18 18 18 18 18 18 17 17 17 18 18 18 17 17 17 17 17
25 27 28 28 27 28 28 28 29 29 28 27 27 27 24 22 21 20 20 19 19 18 18 18 18 18 18 18 18 18 18 18 18 18 18 18 18 17 17 17 18 18 18 18 17 17 17 17 17
24 27 27 27 27 27 28 28 28 28 28 26 26 27 25 23 21 20 20 19 19 18 18 18 18 18 18 18 18 18 18 18 18 18 18 18 17 17 17 17 18 18 18 18 17 17 17 17 17
23 27 27 27 27 28 28 28 28 27 27 26 26 26 25 23 21 20 20 19 19 19 19 19 18 18 18 17 18 18 18 18 18 18 18 17 17 16 16 16 18 18 17 17 17 17 17 17 17
25 27 28 28 28 28 28 28 28 28 28 27 26 24 23 22 22 21 21 21 20 20 19 19 19 18 18 17 18 18 17 17 17 17 17 17 17 16 16 17 17 17 17 17 16 16 17 16 17
26 27 27 27 27 27 27 27 27 28 28 28 27 25 23 23 22 22 22 22 21 21 20 19 19 19 18 18 18 18 18 17 17 17 16 17 16 16 16 16 16 16 16 16 16 16 16 17 16
26 27 26 27 26 26 27 27 28 28 28 28 27 26 25 24 24 23 23 23 22 21 20 19 19 19 18 18 18 17 17 17 17 17 17 17 17 16 16 16 16 16 16 16 16 16 16 16 17
26 26 25 25 25 26 26 27 27 28 27 27 27 26 25 25 25 24 24 23 22 21 20 20 19 19 19 18 18 17 17 17 17 17 17 17 17 17 16 16 16 16 16 16 16 17 16 16 16
26 25 25 25 26 26 27 27 27 28 27 27 26 26 26 26 26 25 24 24 23 22 21 20 20 19 19 18 18 18 17 17 17 17 17 17 17 17 16 17 16 16 16 16 16 16 16 16 16
24 25 26 27 27 27 27 27 28 28 27 27 27 27 27 26 26 25 25 24 23 22 21 20 20 20 19 19 18 18 18 17 17 17 16 16 17 17 16 17 16 16 16 16 16 16 16 16 15
26 26 26 27 27 27 27 27 29 27 27 27 27 27 26 26 25 25 24 24 23 22 21 21 20 20 19 19 19 18 18 18 17 17 16 16 17 17 16 16 16 16 16 16 16 16 16 16 16
25 26 27 27 27 27 27 27 29 27 27 27 27 27 26 26 25 24 23 23 22 22 21 21 20 20 19 19 19 18 18 18 17 17 17 16 16 17 16 16 16 16 16 16 16 16 16 16 15
24 26 26 26 27 27 26 27 28 28 27 27 27 27 27 27 26 24 23 23 22 22 21 21 20 19 19 18 18 18 18 18 17 17 17 17 16 16 16 16 16 16 16 16 16 16 16 15 15
23 24 25 26 27 26 26 27 28 28 27 27 27 27 27 27 25 23 23 23 22 22 21 20 20 19 18 18 18 18 18 18 18 17 17 17 17 16 16 16 16 16 16 16 16 15 15 15 15
22 23 24 25 26 26 26 27 28 28 28 27 28 28 27 26 24 22 22 22 22 22 21 20 20 19 18 18 18 18 18 18 18 17 17 17 17 16 16 16 16 16 16 16 16 15 15 15 15
23 23 23 23 24 25 25 26 27 28 28 27 25 25 26 25 24 23 22 21 21 21 21 21 20 19 18 18 18 18 18 18 18 18 17 17 17 17 16 16 15 16 16 16 16 16 15 15 15
22 23 22 22 23 24 25 24 27 28 28 27 26 25 24 23 23 22 21 21 20 20 20 20 19 18 18 18 18 18 18 17 17 17 17 17 17 17 16 16 15 15 16 16 16 16 16 15 15
22 21 20 21 21 23 25 25 26 27 27 27 27 25 24 22 22 22 21 21 20 20 20 19 19 18 18 17 17 17 17 17 17 17 16 16 16 16 16 16 16 15 16 16 16 16 16 15 15
22 21 20 20 21 22 25 25 25 27 26 26 26 24 23 22 22 22 21 21 20 20 20 19 19 18 18 18 17 16 16 16 16 16 16 16 16 16 16 16 16 16 16 16 16 16 16 15 15
23 22 20 20 20 22 24 24 25 27 26 25 25 24 23 22 22 22 21 20 20 20 19 19 18 18 17 17 16 16 16 16 16 15 15 15 15 15 15 15 15 15 15 16 16 16 15 15 15
23 23 22 21 22 23 23 24 26 26 25 24 24 24 23 23 22 22 21 20 20 19 19 18 18 17 17 17 16 16 16 16 15 15 15 15 15 15 15 15 15 15 15 15 15 15 15 15 15
23 23 24 23 23 22 24 25 26 26 25 25 24 24 23 23 23 22 21 20 20 19 19 19 18 17 17 16 16 16 16 16 15 15 15 15 15 15 14 14 14 14 14 14 14 14 14 14 14
23 24 23 23 22 22 23 24 25 26 25 25 25 25 24 24 23 23 21 21 20 20 19 19 18 17 17 17 16 16 16 15 15 15 15 15 15 14 14 14 13 13 13 13 13 13 13 14 14
22 22 23 23 23 21 22 23 25 25 25 25 25 24 23 23 23 23 22 21 20 20 20 19 19 18 17 17 16 16 16 16 15 15 15 15 15 14 14 13 13 13 13 13 13 13 13 13 13
21 21 22 20 21 21 21 23 25 24 24 24 24 24 23 22 22 22 21 21 21 21 20 20 19 18 18 17 17 16 16 16 16 15 15 15 15 14 14 13 13 13 13 13 13 13 13 13 13
Wind_Speed
3 2 2 3 3 5 9 5 3 3 4 4 4 3 5 6 5 3 5 9 9 12 13 15 12 12 11 11 13 14 14 13 13 12 12 12 12 13 13 12 11 10 9 10 11 11 8 8 7
3 2 3 3 2 6 7 3 2 2 3 4 3 2 3 5 5 6 8 8 10 12 12 13 12 11 11 11 12 13 13 13 12 12 12 11 11 12 12 12 11 10 9 9 10 9 8 9 9
2 2 2 2 3 6 6 4 3 2 4 0 2 3 4 4 4 5 7 10 10 11 11 12 12 11 11 11 12 13 13 12 12 12 12 11 11 12 12 12 11 10 9 9 9 9 8 9 10
3 3 2 2 6 5 4 3 1 4 4 1 0 3 4 4 3 6 10 11 11 11 10 11 11 11 11 11 13 14 14 13 13 12 11 11 11 12 12 12 11 11 10 9 7 7 7 8 10
2 2 3 5 6 4 2 2 0 4 2 1 1 3 5 5 7 9 11 10 10 10 9 11 10 10 10 11 13 14 14 14 13 12 11 12 12 12 12 12 12 11 9 9 7 6 6 9 9
2 2 4 6 6 4 3 2 1 2 2 2 2 2 5 7 8 10 10 8 8 9 9 10 11 9 10 11 13 14 14 14 13 13 12 12 12 13 12 12 12 10 10 9 8 8 10 10 9
2 2 3 6 6 5 3 1 0 1 2 2 2 3 5 8 9 10 9 8 7 8 8 8 11 11 10 11 13 14 14 13 13 13 12 12 12 13 12 13 12 11 10 10 10 11 11 10 9
2 2 4 6 7 4 2 1 1 2 1 2 3 2 4 10 11 11 9 8 8 8 8 8 9 10 11 12 13 14 14 14 13 13 13 13 13 13 13 13 12 12 11 11 12 12 11 10 9
2 4 5 6 7 5 3 2 2 0 2 3 4 2 5 15 14 12 10 9 9 8 8 8 9 9 10 11 13 14 14 14 14 13 14 14 13 13 12 13 13 12 12 12 12 12 11 9 9
3 5 4 4 6 5 2 1 2 3 2 4 6 5 9 15 14 13 12 12 11 11 10 8 8 10 10 10 12 12 12 13 12 11 12 10 10 9 11 15 13 12 12 12 12 11 8 3 7
4 6 3 5 6 4 3 2 3 3 2 3 6 10 13 14 14 13 12 11 11 11 10 9 9 9 9 8 9 8 9 10 11 12 11 8 9 9 10 11 13 11 11 10 11 8 5 6 6
5 6 5 3 5 5 5 3 4 5 2 3 5 10 14 15 15 14 12 11 11 11 11 10 10 10 9 8 7 7 7 8 8 10 11 9 7 7 8 8 9 9 7 6 7 6 6 6 7
9 6 5 6 5 7 6 7 5 7 6 5 7 11 13 14 13 13 11 11 11 11 12 12 12 11 10 8 7 7 6 7 8 8 10 10 7 8 8 8 8 8 8 7 6 6 6 7 7
5 7 7 7 9 7 9 9 8 9 7 9 11 12 13 13 13 12 12 12 12 12 12 12 13 12 11 10 9 8 7 7 8 8 10 10 9 8 8 9 9 8 7 6 7 7 6 6 6
5 8 10 10 11 8 8 13 13 10 8 12 14 13 13 12 12 12 11 11 11 10 11 12 13 13 13 12 11 8 8 8 8 8 11 11 10 10 10 9 10 9 9 8 7 8 6 6 6
6 8 10 7 9 8 9 13 6 1 8 12 14 14 13 13 13 12 10 10 10 10 11 12 12 14 14 13 11 9 9 8 8 9 10 11 12 12 10 9 9 9 9 8 7 8 7 7 6
7 9 9 6 5 5 9 11 5 1 5 10 13 14 14 14 13 12 10 10 10 11 11 12 14 14 14 14 12 10 9 8 8 9 9 11 12 13 11 9 9 11 8 7 8 8 8 8 6
7 9 9 8 3 6 10 12 11 7 7 10 12 15 15 15 13 9 8 8 9 10 11 11 12 13 13 11 11 9 9 9 8 8 10 12 12 13 11 9 11 11 8 7 8 9 8 7 7
8 9 10 9 6 8 13 14 13 11 9 11 13 15 16 14 9 7 7 5 5 5 6 7 9 11 10 9 9 9 9 8 7 8 11 12 12 12 9 7 11 11 10 10 11 9 10 9 8
10 12 12 9 6 9 13 15 14 14 13 13 14 15 16 13 10 9 7 5 3 2 2 4 6 8 10 9 8 6 7 7 8 8 9 12 13 10 8 8 8 10 10 11 12 11 10 9 9
12 12 10 10 12 9 10 15 14 14 12 11 11 11 12 13 12 11 8 5 4 3 4 4 5 7 9 9 6 5 5 5 6 7 8 10 13 12 9 9 9 11 11 11 13 14 14 11 11
12 5 6 8 10 9 7 13 13 12 13 13 12 10 11 11 12 11 8 6 5 5 5 5 6 7 8 9 8 9 7 7 7 6 7 10 13 13 14 14 12 13 12 12 13 15 14 12 12
6 0 2 5 9 13 13 13 11 9 12 11 8 9 10 12 13 11 8 6 6 6 5 5 6 6 6 7 6 7 6 5 4 5 6 8 10 12 15 16 14 15 13 14 14 14 15 13 12
5 3 2 4 8 12 12 10 9 6 5 6 5 4 9 12 12 10 8 7 7 6 6 6 6 6 6 5 5 6 5 5 5 5 5 5 6 8 12 14 14 14 12 12 11 12 15 13 14
9 6 3 3 5 7 3 6 6 4 5 7 7 3 9 13 12 11 10 9 8 7 7 6 7 7 7 6 6 5 5 5 6 6 6 5 5 5 8 10 11 11 10 10 8 9 10 13 14
9 11 8 4 5 3 4 6 3 3 5 5 3 4 10 12 11 10 10 9 9 9 9 8 7 7 6 6 5 5 4 4 4 5 4 5 5 5 6 8 9 10 10 10 9 7 8 9 12
6 8 7 10 10 8 7 6 6 3 2 2 2 6 10 11 11 10 9 9 10 10 11 10 9 7 7 6 5 5 4 4 4 4 4 4 4 4 6 7 7 8 9 10 10 7 8 7 8
7 5 5 7 7 10 8 9 6 4 2 2 2 4 6 7 8 9 9 10 10 11 11 11 10 9 8 6 6 4 5 4 3 4 4 4 5 5 7 8 8 8 9 10 10 9 8 7 6
4 6 8 8 7 7 6 3 1 2 4 4 3 2 1 2 4 6 8 10 11 11 11 12 11 10 9 8 7 6 6 5 4 4 4 5 5 7 7 8 9 9 9 9 9 8 8 6 4
4 5 7 8 10 8 6 4 4 3 5 5 5 4 3 4 4 4 5 8 11 12 13 13 13 12 11 10 9 7 6 5 5 5 5 6 6 7 8 8 9 10 10 10 9 9 8 6 4
Wind_Direction
259 306 266 254 192 92 75 70 58 59 56 58 54 49 37 30 10 37 109 140 146 150 155 160 165 159 153 154 159 161 158 154 150 146 139 136 137 138 133 126 115 105 97 89 82 76 74 76 79
317 290 259 251 140 94 78 54 42 44 78 103 81 43 33 58 52 97 133 139 152 151 157 159 160 162 157 158 161 162 161 158 154 148 141 138 137 136 132 126 116 108 104 99 94 93 97 91 84
271 258 266 193 109 81 79 52 19 100 143 144 69 44 30 54 88 121 133 143 151 150 157 153 164 165 162 163 162 160 160 157 151 146 142 141 137 133 131 127 120 112 108 106 104 103 102 94 87
254 226 223 180 118 94 79 50 20 156 176 211 303 92 81 62 94 121 137 145 145 150 157 154 168 168 167 168 164 160 158 155 149 146 146 143 136 131 131 128 122 116 113 112 110 105 99 100 92
262 247 182 154 128 111 86 26 116 181 181 176 190 86 99 89 103 125 143 148 149 152 156 153 166 171 171 171 165 161 159 156 150 147 145 140 136 132 131 128 122 117 117 118 116 110 111 110 94
257 245 193 163 141 130 124 123 154 220 211 177 188 128 101 119 130 135 141 150 147 147 154 151 160 173 172 168 164 161 160 156 150 146 140 136 135 132 130 126 120 119 121 120 113 110 111 108 93
273 239 201 167 159 154 118 77 24 309 233 199 193 144 131 142 141 144 142 142 138 145 153 156 160 167 170 166 164 161 159 155 150 146 140 136 135 133 128 122 123 127 127 121 115 111 109 103 90
298 242 198 188 185 160 131 149 48 338 29 122 190 174 143 155 151 151 147 148 150 156 162 163 162 161 163 165 165 161 158 155 150 144 141 137 134 133 131 130 129 131 126 122 120 112 108 98 87
259 244 229 203 196 165 144 151 126 324 132 163 185 78 97 142 154 158 159 163 165 169 171 167 163 161 161 162 159 161 156 154 151 147 145 151 152 146 151 124 132 127 119 120 122 112 107 109 100
241 252 246 199 192 163 148 207 179 199 170 171 169 142 136 153 167 174 177 177 176 176 176 176 170 165 165 162 159 166 161 161 164 156 159 167 152 152 129 127 134 124 120 124 121 121 140 162 107
236 254 255 201 195 202 214 220 214 228 174 169 173 170 163 173 182 188 189 185 180 177 175 180 177 174 168 166 167 168 163 167 169 166 167 172 154 153 146 150 147 142 151 134 138 156 101 84 78
244 255 258 226 192 215 219 224 222 237 247 157 159 162 173 185 193 197 195 187 181 182 182 182 184 178 179 175 173 175 169 173 174 177 176 175 171 170 162 165 157 157 151 142 145 119 102 91 93
240 259 249 243 230 237 235 235 249 249 231 203 177 173 183 193 200 201 200 192 191 188 190 187 190 187 183 182 180 187 184 177 180 183 186 184 179 183 171 171 165 168 157 154 148 138 107 95 84
267 261 257 251 238 236 240 243 243 253 218 199 191 188 192 198 204 202 202 202 202 198 197 192 194 192 189 187 190 193 186 183 187 189 199 192 187 188 182 175 171 170 165 160 157 137 125 111 97
256 261 251 238 232 235 246 252 245 254 215 206 203 200 200 204 209 215 214 214 214 208 207 200 200 197 197 197 194 193 196 189 188 195 202 199 193 191 191 182 178 173 170 166 159 140 131 120 118
242 244 245 226 227 224 233 254 249 232 213 217 215 210 209 215 221 222 225 228 226 222 220 211 205 206 202 200 197 196 200 194 186 196 205 206 201 196 191 188 185 179 177 168 160 159 152 145 143
232 243 247 228 215 223 235 256 240 226 236 232 225 223 219 222 225 227 230 235 238 237 231 223 216 213 207 203 202 200 201 196 188 195 201 209 211 201 190 194 190 185 188 178 173 171 163 157 152
264 262 257 251 233 256 254 259 265 258 245 248 238 231 224 227 224 221 225 237 243 244 242 235 224 221 211 204 207 200 207 205 196 195 197 204 215 212 197 197 200 193 189 188 183 176 170 164 165
291 281 272 273 283 282 270 267 264 263 243 247 244 236 228 224 212 203 210 217 229 234 240 232 224 215 206 199 201 199 205 209 210 205 202 195 202 212 207 213 212 203 196 195 192 183 175 174 171
260 265 268 274 291 296 281 274 268 263 256 251 252 242 227 215 204 199 194 183 186 188 196 202 201 200 198 198 202 205 202 212 216 213 204 195 189 192 202 215 227 218 212 206 199 187 184 179 187
256 258 271 289 307 283 285 275 262 259 251 245 246 248 234 212 207 192 183 168 152 148 157 168 178 185 191 186 184 183 182 194 203 208 202 196 187 180 189 211 226 234 224 213 203 193 190 187 198
260 268 289 298 299 286 281 287 278 273 262 249 244 235 221 203 198 183 175 165 149 134 139 150 164 176 182 185 197 206 210 216 222 213 202 200 195 194 198 209 219 229 230 222 209 203 198 192 196
247 90 311 296 286 280 266 273 280 273 268 264 256 236 214 195 187 177 169 157 139 127 125 132 147 160 174 193 206 225 234 233 225 215 209 204 199 204 207 212 215 221 223 224 215 207 202 198 200
192 168 271 267 268 263 262 267 282 279 295 311 317 240 199 184 178 171 163 161 149 136 132 136 142 143 159 178 196 211 211 212 208 211 213 209 204 210 214 213 214 214 212 215 211 206 206 205 205
219 230 250 237 228 251 240 256 273 318 328 315 309 239 180 176 175 175 177 179 171 162 157 156 153 153 162 175 186 196 201 217 222 216 213 211 210 212 217 212 210 205 199 195 187 193 204 211 214
231 236 242 259 250 236 213 248 271 337 312 311 304 179 170 177 184 187 189 188 185 179 176 176 172 167 169 185 188 196 194 212 225 221 216 210 215 214 212 207 203 197 187 178 170 171 193 210 218
235 228 257 268 270 269 255 253 280 282 323 19 96 161 180 191 198 202 200 198 194 190 188 186 182 180 181 189 189 198 192 198 204 211 210 204 208 202 196 189 182 179 176 170 162 162 177 198 218
272 271 228 243 257 256 252 249 251 264 14 48 113 169 196 214 220 217 212 210 206 200 194 189 189 186 185 191 195 196 197 187 191 196 199 199 199 194 185 179 170 167 168 163 157 155 163 177 206
267 247 252 257 262 265 267 232 41 13 18 13 20 44 0 276 262 247 230 220 213 205 196 191 188 189 187 191 194 196 194 190 190 193 193 194 192 188 188 181 174 165 161 157 149 146 149 158 186
279 294 276 264 260 263 272 267 63 5 360 5 8 18 11 351 335 303 265 237 219 211 204 197 192 187 188 190 192 200 194 193 202 197 193 192 191 194 196 186 180 172 166 162 157 154 153 159 187
Height
1500 1499 1499 1500 1498 1497 1504 1502 1498 1499 1498 1500 1501 1500 1499 1500 1503 1510 1511 1509 1511 1513 1514 1515 1517 1519 1520 1521 1523 1524 1525 1527 1528 1529 1530 1531 1532 1533 1534 1534 1535 1534 1534 1534 1534 1535 1536 1536 1536
1501 1500 1502 1501 1496 1505 1508 1501 1499 1499 1501 1503 1503 1502 1502 1504 1508 1510 1510 1510 1512 1514 1515 1517 1517 1519 1520 1522 1523 1524 1526 1528 1529 1530 1531 1532 1533 1534 1535 1535 1535 1535 1535 1535 1536 1536 1537 1538 1537
1501 1501 1503 1498 1499 1504 1506 1501 1499 1501 1503 1503 1503 1504 1504 1507 1510 1511 1511 1511 1513 1515 1516 1517 1518 1519 1521 1522 1523 1525 1527 1528 1529 1531 1532 1533 1534 1535 1536 1536 1536 1536 1536 1537 1537 1538 1539 1539 1539
1503 1504 1503 1499 1503 1502 1501 1499 1501 1502 1504 1504 1504 1504 1507 1510 1511 1511 1511 1513 1514 1515 1517 1517 1518 1520 1521 1522 1524 1525 1527 1529 1530 1531 1532 1533 1534 1535 1536 1537 1537 1537 1538 1538 1539 1540 1540 1540 1540
1503 1502 1499 1502 1503 1501 1500 1501 1501 1501 1501 1503 1503 1503 1508 1511 1510 1511 1512 1514 1516 1517 1518 1518 1519 1521 1522 1523 1524 1526 1527 1529 1530 1532 1533 1534 1535 1536 1537 1537 1538 1538 1539 1539 1540 1541 1541 1541 1541
1505 1500 1500 1505 1503 1501 1500 1501 1502 1501 1501 1503 1504 1504 1509 1511 1511 1513 1514 1515 1517 1518 1518 1519 1519 1521 1522 1524 1525 1527 1528 1530 1531 1532 1534 1535 1536 1536 1537 1538 1539 1540 1540 1540 1541 1542 1542 1542 1542
1505 1500 1500 1501 1505 1502 1501 1502 1500 1500 1500 1502 1504 1504 1509 1511 1512 1513 1514 1516 1517 1518 1519 1520 1520 1521 1523 1524 1525 1527 1528 1530 1531 1533 1534 1536 1537 1537 1538 1538 1539 1540 1541 1542 1543 1543 1543 1543 1543
1505 1502 1501 1502 1504 1502 1501 1501 1501 1501 1501 1504 1505 1503 1507 1511 1511 1513 1515 1516 1517 1518 1519 1520 1522 1523 1524 1524 1526 1527 1529 1531 1532 1533 1535 1537 1537 1538 1539 1540 1540 1541 1542 1543 1544 1545 1545 1544 1544
1505 1503 1501 1500 1501 1499 1500 1500 1502 1502 1502 1504 1504 1505 1507 1509 1511 1513 1514 1516 1517 1518 1520 1521 1523 1523 1524 1526 1526 1528 1529 1531 1532 1534 1536 1537 1539 1540 1541 1541 1542 1543 1544 1545 1545 1546 1546 1545 1544
1504 1501 1497 1496 1497 1497 1499 1500 1501 1501 1501 1502 1504 1506 1506 1508 1511 1512 1514 1515 1517 1518 1519 1521 1523 1524 1525 1526 1527 1528 1529 1531 1533 1535 1536 1539 1541 1542 1543 1541 1543 1544 1545 1546 1546 1547 1547 1547 1547
1502 1499 1496 1497 1498 1499 1499 1500 1501 1500 1499 1500 1501 1504 1506 1508 1510 1511 1513 1514 1516 1518 1519 1521 1523 1524 1525 1526 1528 1529 1530 1531 1534 1536 1537 1539 1541 1542 1543 1544 1544 1546 1547 1549 1548 1549 1550 1550 1548
1501 1498 1498 1497 1499 1499 1499 1499 1499 1499 1499 1499 1500 1502 1504 1506 1508 1510 1511 1513 1515 1517 1518 1520 1522 1524 1525 1526 1527 1529 1530 1531 1533 1535 1537 1539 1541 1543 1544 1545 1546 1547 1549 1549 1551 1551 1551 1551 1551
1499 1497 1499 1499 1499 1498 1498 1498 1498 1497 1498 1499 1500 1501 1503 1505 1507 1509 1511 1512 1514 1515 1517 1519 1520 1523 1524 1525 1526 1528 1529 1530 1532 1533 1536 1538 1540 1542 1543 1545 1545 1547 1549 1550 1551 1552 1552 1552 1552
1498 1498 1498 1497 1496 1496 1496 1495 1496 1494 1496 1497 1499 1500 1501 1503 1504 1507 1509 1511 1512 1514 1516 1517 1518 1520 1522 1523 1525 1527 1528 1529 1530 1532 1534 1537 1539 1541 1542 1544 1545 1547 1548 1550 1551 1552 1552 1553 1553
1499 1497 1494 1493 1493 1492 1494 1492 1489 1490 1493 1494 1496 1497 1499 1500 1502 1504 1507 1509 1511 1513 1515 1516 1517 1518 1520 1522 1524 1525 1526 1528 1529 1530 1533 1536 1538 1540 1541 1544 1545 1546 1548 1550 1551 1552 1553 1554 1554
1495 1494 1493 1487 1489 1490 1494 1492 1484 1488 1490 1491 1492 1494 1496 1498 1499 1502 1504 1507 1509 1510 1512 1513 1514 1515 1517 1519 1521 1523 1525 1526 1527 1528 1531 1534 1537 1539 1541 1542 1544 1546 1547 1549 1550 1551 1553 1554 1555
1494 1492 1490 1487 1487 1487 1489 1488 1483 1487 1488 1488 1489 1491 1493 1495 1497 1499 1500 1503 1505 1506 1508 1510 1510 1512 1513 1515 1517 1520 1522 1523 1525 1526 1528 1531 1535 1537 1539 1540 1543 1544 1546 1548 1549 1551 1552 1554 1555
1499 1492 1490 1489 1485 1487 1487 1486 1483 1483 1486 1485 1485 1487 1488 1490 1493 1495 1496 1498 1500 1501 1503 1505 1506 1507 1509 1510 1513 1515 1517 1519 1521 1522 1524 1527 1531 1534 1537 1538 1541 1543 1543 1545 1547 1549 1551 1553 1554
1500 1497 1494 1489 1485 1488 1485 1482 1479 1479 1481 1482 1481 1482 1483 1486 1489 1490 1492 1493 1496 1497 1498 1500 1501 1502 1503 1504 1507 1510 1513 1515 1517 1519 1521 1523 1526 1529 1533 1535 1538 1539 1541 1542 1545 1547 1549 1551 1553
1500 1500 1495 1489 1485 1487 1483 1479 1475 1474 1475 1476 1476 1476 1479 1482 1486 1487 1489 1491 1493 1494 1495 1496 1497 1498 1499 1500 1502 1505 1509 1511 1513 1514 1516 1519 1521 1524 1527 1530 1533 1536 1538 1540 1542 1544 1547 1549 1551
1498 1498 1496 1495 1489 1483 1485 1480 1472 1468 1469 1472 1473 1474 1475 1479 1482 1485 1488 1490 1491 1492 1493 1494 1494 1495 1496 1497 1499 1502 1504 1507 1508 1510 1512 1514 1516 1519 1521 1524 1528 1531 1534 1536 1538 1540 1543 1546 1549
1499 1495 1497 1498 1496 1489 1486 1488 1471 1465 1464 1465 1468 1470 1472 1476 1479 1483 1486 1488 1490 1491 1491 1492 1492 1493 1494 1495 1497 1499 1502 1504 1506 1506 1507 1509 1511 1514 1516 1519 1522 1526 1529 1532 1535 1537 1539 1543 1546
1496 1497 1500 1500 1499 1493 1482 1484 1471 1461 1463 1460 1462 1466 1470 1473 1477 1481 1484 1487 1488 1489 1490 1491 1491 1492 1493 1494 1495 1497 1499 1501 1502 1503 1504 1505 1507 1509 1511 1514 1517 1520 1523 1527 1530 1533 1536 1539 1542
1492 1498 1500 1499 1498 1497 1479 1481 1475 1460 1461 1460 1462 1464 1467 1471 1475 1479 1483 1485 1487 1488 1489 1489 1490 1491 1492 1492 1493 1495 1497 1498 1499 1499 1500 1501 1502 1504 1505 1508 1511 1514 1517 1521 1525 1528 1532 1535 1538
1491 1497 1506 1507 1505 1494 1476 1481 1472 1459 1460 1461 1461 1462 1465 1470 1474 1478 1481 1483 1485 1486 1487 1488 1489 1490 1491 1491 1493 1494 1495 1496 1497 1497 1497 1497 1498 1499 1501 1503 1505 1508 1511 1515 1519 1523 1526 1530 1534
1485 1488 1499 1504 1499 1487 1481 1479 1464 1459 1461 1461 1461 1462 1465 1470 1474 1477 1480 1482 1484 1485 1486 1487 1488 1489 1489 1490 1492 1493 1493 1493 1494 1494 1494 1494 1495 1496 1497 1498 1501 1504 1506 1509 1513 1517 1521 1525 1529
1483 1484 1479 1485 1483 1489 1478 1469 1461 1457 1459 1460 1461 1463 1466 1469 1473 1476 1479 1481 1482 1483 1484 1485 1486 1487 1488 1489 1490 1491 1491 1491 1492 1492 1492 1493 1493 1493 1494 1496 1498 1500 1502 1504 1507 1510 1515 1520 1524
1480 1476 1482 1484 1490 1490 1479 1474 1468 1459 1459 1459 1461 1463 1466 1469 1472 1474 1477 1479 1480 1481 1482 1483 1485 1486 1486 1487 1488 1489 1490 1490 1490 1491 1491 1491 1492 1492 1493 1494 1496 1498 1499 1500 1502 1506 1510 1515 1520
1481 1482 1478 1476 1478 1488 1488 1477 1459 1460 1461 1462 1462 1464 1467 1469 1471 1472 1474 1476 1477 1478 1479 1480 1481 1483 1484 1485 1486 1487 1488 1488 1489 1490 1490 1490 1491 1491 1492 1493 1495 1496 1498 1499 1501 1503 1506 1511 1516
1484 1482 1481 1490 1487 1483 1487 1478 1459 1462 1463 1464 1464 1465 1467 1468 1469 1470 1470 1471 1472 1474 1476 1477 1479 1480 1481 1482 1484 1485 1486 1487 1488 1489 1489 1490 1490 1491 1492 1493 1495 1497 1498 1500 1502 1504 1506 1510 1514